Location: Litvinovka
(48.6667°N, 34.3500°E)
Time: 01:16:16
(UTC+00:00)

COSMOS 2406 - Pass Details

Date: 18 September 2020
Orbit: 844 x 863 km, 71.0° (Epoch: 23 October)

Event Time Altitude Azimuth Distance (km) Brightness Sun altitude
Rises 19:04:58 0° 330° (NNW) 3,415 7.4 -30.1°
Reaches altitude 10° 19:07:26 10° 329° (NNW) 2,476 6.5 -30.4°
Enters shadow 19:12:18 64° 302° (WNW) 937 3.5 -31.0°
